Litchfield, IL

10:27 AM CST on February 23, 2017 (GMT -0600)
Litchfield

Weather History for K3LF - February, 2014

Change the Weather History Date:

Sunday, February 9, 2014

  Actual Average (KALN) Record (KALN)
Temperature  
Mean Temperature 16 °F -  
Max Temperature 23 °F 42 °F 68 °F (2009)
Min Temperature 8 °F 27 °F 9 °F (2011)
Degree Days  
Heating Degree Days 49    
Moisture  
Dew Point 15 °F    
Average Humidity 82    
Maximum Humidity 93    
Minimum Humidity 72    
Precipitation  
Precipitation 0.00 in - - ()
Sea Level Pressure  
Sea Level Pressure 30.23 in    
Wind  
Wind Speed 5 mph (NNW)    
Max Wind Speed 15 mph    
Max Gust Speed -    
Visibility 9 miles    
Events Snow    
Averages and records for this station are not official NWS values.
T = Trace of Precipitation, MM = Missing Value Source: NWS Daily Summary

Daily Weather History Graph

Daily Weather History Graph

Search for Another Location

Airport or City:

Trip Planner

Search our weather history database for the weather conditions in past years. The results will help you decide how hot, cold, wet, or windy it might be!

Date:

Astronomy

Feb. 09, 2014 Rise Set
Actual Time 6:57 AM CST 5:28 PM CST
Civil Twilight 6:29 AM CST 5:56 PM CST
Nautical Twilight 5:58 AM CST 6:28 PM CST
Astronomical Twilight 5:26 AM CST 6:59 PM CST
Moon 1:09 PM CST (2/9) 3:01 AM CST (2/9)
Length of Visible Light 11h 27m
Length of Day
10h 31m
Waxing Gibbous, 77% of the Moon is Illuminated
Feb 9
Waxing Gibbous
Feb 14
Full
Feb 22
Last Quarter
Mar 1
New
Mar 8
First Quarter

Hourly Weather History & Observations

Time (CST) Temp. Windchill Dew Point Humidity Pressure Visibility Wind Dir Wind Speed Gust Speed Precip Events Conditions
12:15 AM 22.6 °F - 19.9 °F 89% 30.15 in 10.0 mi Calm Calm - N/A   Overcast
12:35 AM 22.1 °F - 20.3 °F 93% 30.16 in 10.0 mi Calm Calm - N/A   Overcast
12:55 AM 22.5 °F - 20.3 °F 91% 30.16 in 10.0 mi Calm Calm - N/A   Overcast
1:15 AM 22.5 °F - 20.3 °F 91% 30.16 in 10.0 mi Calm Calm - N/A   Overcast
1:35 AM 22.3 °F - 20.3 °F 92% 30.15 in 10.0 mi Calm Calm - N/A   Overcast
1:55 AM 22.5 °F - 20.3 °F 91% 30.15 in 10.0 mi Calm Calm - N/A   Overcast
2:15 AM 22.3 °F - 20.3 °F 92% 30.15 in 10.0 mi Calm Calm - N/A   Overcast
2:35 AM 22.5 °F - 20.3 °F 91% 30.14 in 10.0 mi Calm Calm - N/A   Overcast
2:55 AM 22.5 °F - 20.3 °F 91% 30.15 in 10.0 mi Calm Calm - N/A   Overcast
3:15 AM 22.6 °F - 20.7 °F 92% 30.12 in 10.0 mi Calm Calm - N/A   Overcast
3:35 AM 22.5 °F - 20.7 °F 93% - 7.0 mi Calm Calm - N/A   Overcast
3:55 AM 22.5 °F 16.3 °F 20.8 °F 93% 30.15 in 7.0 mi West 4.6 mph - N/A   Overcast
4:15 AM 22.8 °F 16.7 °F 20.3 °F 90% 30.15 in 10.0 mi WNW 4.6 mph - N/A   Overcast
4:35 AM 23.0 °F 17.0 °F 20.3 °F 89% 30.15 in 5.0 mi WNW 4.6 mph - N/A   Overcast
4:55 AM 23.0 °F 15.8 °F 20.7 °F 91% 30.16 in 7.0 mi WNW 5.8 mph - N/A Snow Light Snow
5:15 AM 23.0 °F 17.0 °F 20.7 °F 91% 30.16 in 10.0 mi West 4.6 mph - N/A   Overcast
5:35 AM 23.0 °F 18.4 °F 20.7 °F 91% 30.15 in 7.0 mi WNW 3.5 mph - N/A Snow Light Snow
5:55 AM 23.0 °F - 20.7 °F 91% - 5.0 mi Calm Calm - N/A Snow Light Snow
6:15 AM 22.8 °F 15.5 °F 20.7 °F 91% 30.15 in 4.0 mi NW 5.8 mph - N/A Snow Light Snow
6:35 AM 22.6 °F 11.9 °F 21.0 °F 93% 30.18 in 3.0 mi NW 10.4 mph - N/A Snow Light Snow
6:55 AM 22.5 °F 9.9 °F 20.3 °F 91% 30.18 in 7.0 mi NNW 13.8 mph - N/A   Overcast
7:15 AM 21.7 °F 11.5 °F 18.5 °F 87% 30.16 in 7.0 mi NNW 9.2 mph - N/A   Overcast
7:35 AM 19.2 °F 9.3 °F 16.3 °F 89% 30.17 in 7.0 mi NNW 8.1 mph - N/A   Scattered Clouds
7:55 AM 18.5 °F 6.8 °F 16.0 °F 90% 30.20 in 7.0 mi NNW 10.4 mph - N/A   Clear
8:15 AM 18.9 °F 7.2 °F 16.3 °F 90% 30.20 in 7.0 mi NNW 10.4 mph - N/A   Clear
8:35 AM 18.5 °F 9.3 °F 15.8 °F 89% 30.22 in 7.0 mi NW 6.9 mph - N/A   Clear
8:55 AM 18.5 °F 7.5 °F 15.8 °F 89% 30.20 in 7.0 mi NW 9.2 mph - N/A   Clear
9:15 AM 20.1 °F 6.9 °F 16.9 °F 87% 30.21 in 7.0 mi NNW 13.8 mph - N/A   Mostly Cloudy
9:35 AM 20.3 °F 7.7 °F 16.7 °F 86% 30.22 in 7.0 mi NNW 12.7 mph - N/A   Overcast
9:55 AM 20.7 °F 11.0 °F 16.7 °F 85% 30.22 in 7.0 mi NW 8.1 mph - N/A   Mostly Cloudy
10:15 AM 20.3 °F 8.3 °F 16.5 °F 85% 30.22 in 7.0 mi NNW 11.5 mph - N/A   Overcast
10:35 AM 20.3 °F 9.0 °F 16.0 °F 83% 30.24 in 7.0 mi NNW 10.4 mph - N/A   Overcast
10:55 AM 20.3 °F 9.8 °F 15.3 °F 81% 30.23 in 7.0 mi North 9.2 mph - N/A   Overcast
11:15 AM 19.9 °F 7.3 °F 14.9 °F 81% 30.22 in 7.0 mi North 12.7 mph - N/A   Overcast
11:35 AM 20.1 °F 8.1 °F 14.7 °F 80% 30.22 in 7.0 mi North 11.5 mph - N/A   Mostly Cloudy
11:55 AM 20.7 °F 8.2 °F 15.3 °F 80% 30.22 in 7.0 mi North 12.7 mph - N/A   Mostly Cloudy
12:15 PM 20.3 °F 7.2 °F 14.9 °F 80% 30.21 in 10.0 mi North 13.8 mph - N/A   Mostly Cloudy
12:35 PM 20.3 °F 7.7 °F 14.2 °F 77% 30.20 in 10.0 mi North 12.7 mph - N/A   Clear
12:55 PM 20.3 °F 7.7 °F 14.2 °F 77% 30.20 in 10.0 mi North 12.7 mph - N/A   Clear
1:15 PM 19.9 °F 7.3 °F 14.0 °F 78% 30.20 in 10.0 mi North 12.7 mph - N/A   Clear
1:35 PM 20.1 °F 8.1 °F 13.8 °F 77% 30.21 in 10.0 mi North 11.5 mph - N/A   Scattered Clouds
1:55 PM 20.1 °F 8.8 °F 13.6 °F 76% 30.22 in 10.0 mi North 10.4 mph - N/A   Mostly Cloudy
2:15 PM 19.9 °F 7.9 °F 13.1 °F 75% 30.22 in 10.0 mi NNW 11.5 mph - N/A   Mostly Cloudy
2:35 PM 19.4 °F 6.6 °F 12.9 °F 76% 30.24 in 10.0 mi North 12.7 mph - N/A   Mostly Cloudy
2:55 PM 19.4 °F 6.6 °F 13.6 °F 78% 30.25 in 10.0 mi NNW 12.7 mph - N/A   Overcast
3:35 PM 19.2 °F 8.4 °F 13.1 °F 77% 30.26 in 10.0 mi North 9.2 mph - N/A   Mostly Cloudy
3:55 PM 19.0 °F 8.2 °F 12.2 °F 75% 30.26 in 10.0 mi NNW 9.2 mph - N/A   Mostly Cloudy
4:15 PM 18.9 °F 7.2 °F 12.0 °F 75% 30.26 in 10.0 mi NNW 10.4 mph - N/A   Mostly Cloudy
4:35 PM 18.5 °F 6.1 °F 10.8 °F 72% 30.26 in 10.0 mi North 11.5 mph - N/A   Scattered Clouds
4:55 PM 18.0 °F 6.1 °F 10.4 °F 72% - 10.0 mi North 10.4 mph - N/A   Scattered Clouds
5:15 PM 17.6 °F 4.3 °F 10.9 °F 75% 30.29 in 10.0 mi NNW 12.7 mph - N/A   Mostly Cloudy
5:35 PM 17.4 °F 6.2 °F 10.4 °F 74% 30.30 in 10.0 mi NNW 9.2 mph - N/A   Overcast
5:55 PM 17.4 °F 8.0 °F 10.4 °F 74% 30.30 in 10.0 mi NW 6.9 mph - N/A   Overcast
6:15 PM 17.4 °F 9.1 °F 10.8 °F 75% 30.30 in 10.0 mi NNW 5.8 mph - N/A   Overcast
6:35 PM 17.2 °F 6.8 °F 10.0 °F 73% 30.31 in 10.0 mi NNW 8.1 mph - N/A   Overcast
6:55 PM 17.2 °F 6.8 °F 9.7 °F 72% 30.31 in 10.0 mi North 8.1 mph - N/A   Overcast
7:35 PM 16.7 °F 6.2 °F 9.7 °F 74% 30.30 in 10.0 mi North 8.1 mph - N/A   Overcast
7:55 PM 16.7 °F 8.3 °F 10.4 °F 76% 30.30 in 10.0 mi North 5.8 mph - N/A   Overcast
8:15 PM 16.5 °F 6.9 °F 9.7 °F 74% 30.30 in 10.0 mi North 6.9 mph - N/A   Overcast
8:35 PM 16.5 °F 8.1 °F 9.9 °F 75% 30.31 in 10.0 mi North 5.8 mph - N/A   Overcast
8:55 PM 16.2 °F 6.5 °F 10.0 °F 77% 30.32 in 10.0 mi North 6.9 mph - N/A   Overcast
9:15 PM 16.2 °F 9.0 °F 10.0 °F 77% 30.33 in 10.0 mi NNW 4.6 mph - N/A   Overcast
9:35 PM 16.2 °F 5.5 °F 10.4 °F 78% 30.33 in 10.0 mi NNW 8.1 mph - N/A   Overcast
9:55 PM 15.6 °F 1.8 °F 8.8 °F 74% 30.33 in 10.0 mi North 12.7 mph - N/A   Overcast
10:15 PM 14.7 °F 2.9 °F 8.1 °F 75% 30.32 in 10.0 mi NNW 9.2 mph - N/A   Mostly Cloudy
10:35 PM 13.8 °F -1.1 °F 6.3 °F 72% 30.33 in 10.0 mi NNW 13.8 mph - N/A   Scattered Clouds
10:55 PM 12.7 °F 1.4 °F 5.9 °F 74% 30.35 in 10.0 mi NNW 8.1 mph - N/A   Scattered Clouds
11:15 PM 11.3 °F -1.3 °F 5.4 °F 77% 30.35 in 10.0 mi NNW 9.2 mph - N/A   Clear
11:35 PM 9.9 °F -2.2 °F 4.8 °F 80% 30.36 in 10.0 mi NNW 8.1 mph - N/A   Scattered Clouds
11:55 PM 8.8 °F -8.1 °F 3.7 °F 80% 30.35 in 10.0 mi NNW 15.0 mph - N/A   Scattered Clouds